TimeCDT,TemperatureF,Dew PointF,Humidity,Sea Level PressureIn,VisibilityMPH,Wind Direction,Wind SpeedMPH,Gust SpeedMPH,PrecipitationIn,Events,Conditions,WindDirDegrees,DateUTC
12:15 AM,73.4,68.0,83,29.98,10.0,SSE,8.1,-,N/A,,Unknown,150,2013-06-16 05:15:00
12:35 AM,73.4,68.0,83,29.98,10.0,SSE,6.9,-,N/A,,Unknown,150,2013-06-16 05:35:00
12:55 AM,71.6,68.0,88,29.97,10.0,SSE,8.1,-,N/A,,Unknown,160,2013-06-16 05:55:00
1:15 AM,71.6,68.0,88,29.96,10.0,SSE,6.9,-,N/A,,Unknown,150,2013-06-16 06:15:00
1:35 AM,71.6,68.0,88,29.96,10.0,SSE,5.8,-,N/A,,Unknown,150,2013-06-16 06:35:00
1:55 AM,71.6,66.2,83,29.95,10.0,SSE,9.2,-,N/A,,Unknown,160,2013-06-16 06:55:00
2:15 AM,71.6,66.2,83,29.95,10.0,SSE,5.8,-,N/A,,Unknown,160,2013-06-16 07:15:00
2:35 AM,71.6,66.2,83,29.95,10.0,South,5.8,-,N/A,,Unknown,170,2013-06-16 07:35:00
2:55 AM,71.6,66.2,83,29.95,10.0,SSE,5.8,-,N/A,,Unknown,160,2013-06-16 07:55:00
3:15 AM,71.6,66.2,83,29.96,10.0,South,5.8,-,N/A,,Unknown,170,2013-06-16 08:15:00
3:35 AM,71.6,66.2,83,29.96,10.0,SSE,4.6,-,N/A,,Unknown,160,2013-06-16 08:35:00
3:55 AM,71.6,66.2,83,29.96,10.0,South,4.6,-,N/A,,Unknown,170,2013-06-16 08:55:00
4:15 AM,71.6,66.2,83,29.96,10.0,South,5.8,-,N/A,,Unknown,170,2013-06-16 09:15:00
4:35 AM,71.6,66.2,83,29.96,10.0,South,5.8,-,N/A,,Unknown,170,2013-06-16 09:35:00
4:55 AM,71.6,66.2,83,29.96,10.0,South,6.9,-,N/A,,Unknown,170,2013-06-16 09:55:00
5:15 AM,71.6,68.0,88,29.98,10.0,SSE,6.9,-,N/A,,Unknown,160,2013-06-16 10:15:00
5:35 AM,71.6,68.0,88,29.99,10.0,SE,5.8,-,N/A,,Unknown,140,2013-06-16 10:35:00
5:55 AM,71.6,68.0,88,29.99,10.0,SSE,5.8,-,N/A,,Unknown,150,2013-06-16 10:55:00
6:15 AM,71.6,68.0,88,29.99,10.0,South,4.6,-,N/A,,Unknown,180,2013-06-16 11:15:00
6:35 AM,71.6,68.0,88,30.00,10.0,SSE,3.5,-,N/A,,Unknown,150,2013-06-16 11:35:00
6:55 AM,71.6,68.0,88,30.01,10.0,SSE,3.5,-,N/A,,Unknown,150,2013-06-16 11:55:00
7:15 AM,71.6,68.0,88,30.01,10.0,South,3.5,-,N/A,,Unknown,170,2013-06-16 12:15:00
7:35 AM,73.4,68.0,83,30.01,10.0,South,4.6,-,N/A,,Unknown,170,2013-06-16 12:35:00
7:55 AM,73.4,68.0,83,30.02,10.0,South,3.5,-,N/A,,Unknown,190,2013-06-16 12:55:00
8:15 AM,75.2,69.8,83,30.01,10.0,South,4.6,-,N/A,,Unknown,190,2013-06-16 13:15:00
8:35 AM,77.0,69.8,78,30.01,10.0,Calm,Calm,-,N/A,,Unknown,0,2013-06-16 13:35:00
8:55 AM,77.0,69.8,78,30.01,10.0,South,6.9,-,N/A,,Unknown,190,2013-06-16 13:55:00
9:15 AM,80.6,71.6,74,30.01,10.0,SW,6.9,-,N/A,,Unknown,220,2013-06-16 14:15:00
9:35 AM,82.4,69.8,66,30.01,10.0,SW,10.4,-,N/A,,Unknown,220,2013-06-16 14:35:00
9:55 AM,82.4,69.8,66,30.01,10.0,SW,9.2,-,N/A,,Unknown,220,2013-06-16 14:55:00
10:15 AM,82.4,69.8,66,29.99,10.0,SW,10.4,-,N/A,,Unknown,220,2013-06-16 15:15:00
10:35 AM,82.4,69.8,66,29.99,10.0,SW,11.5,-,N/A,,Unknown,220,2013-06-16 15:35:00
10:55 AM,86.0,69.8,58,29.98,10.0,SSW,11.5,-,N/A,,Unknown,210,2013-06-16 15:55:00
11:15 AM,86.0,69.8,58,29.97,10.0,SW,11.5,-,N/A,,Unknown,220,2013-06-16 16:15:00
11:35 AM,86.0,69.8,58,29.98,10.0,SW,9.2,-,N/A,,Unknown,230,2013-06-16 16:35:00
11:55 AM,87.8,69.8,55,29.98,10.0,SW,9.2,-,N/A,,Unknown,230,2013-06-16 16:55:00
12:15 PM,87.8,69.8,55,29.98,10.0,WSW,11.5,16.1,N/A,,Unknown,240,2013-06-16 17:15:00
12:35 PM,87.8,69.8,55,29.98,10.0,SW,10.4,-,N/A,,Unknown,220,2013-06-16 17:35:00
12:55 PM,87.8,69.8,55,29.97,10.0,SW,8.1,16.1,N/A,,Unknown,230,2013-06-16 17:55:00
1:15 PM,87.8,69.8,55,29.96,10.0,SW,10.4,-,N/A,,Unknown,230,2013-06-16 18:15:00
1:35 PM,87.8,69.8,55,29.95,10.0,SSW,9.2,-,N/A,,Unknown,210,2013-06-16 18:35:00
1:55 PM,89.6,69.8,52,29.94,10.0,South,11.5,-,N/A,,Unknown,190,2013-06-16 18:55:00
2:15 PM,89.6,69.8,52,29.94,10.0,SSW,12.7,16.1,N/A,,Unknown,210,2013-06-16 19:15:00
2:35 PM,89.6,69.8,52,29.94,10.0,SSW,12.7,18.4,N/A,,Unknown,200,2013-06-16 19:35:00
2:55 PM,89.6,69.8,52,29.93,10.0,SSW,11.5,17.3,N/A,,Unknown,200,2013-06-16 19:55:00
3:15 PM,89.6,69.8,52,29.93,10.0,SSW,11.5,17.3,N/A,,Unknown,210,2013-06-16 20:15:00
3:35 PM,89.6,69.8,52,29.94,10.0,SSW,9.2,-,N/A,,Unknown,210,2013-06-16 20:35:00
3:55 PM,89.6,69.8,52,29.94,10.0,SSW,8.1,-,N/A,,Unknown,200,2013-06-16 20:55:00
4:15 PM,91.4,68.0,46,29.93,10.0,SW,6.9,-,N/A,,Unknown,220,2013-06-16 21:15:00
4:35 PM,91.4,69.8,49,29.93,10.0,WSW,5.8,-,N/A,,Unknown,240,2013-06-16 21:35:00
4:55 PM,91.4,69.8,49,29.92,10.0,SSW,6.9,-,N/A,,Unknown,210,2013-06-16 21:55:00
5:15 PM,91.4,69.8,49,29.91,10.0,South,5.8,-,N/A,,Unknown,180,2013-06-16 22:15:00
5:35 PM,91.4,69.8,49,29.91,10.0,SW,8.1,-,N/A,,Unknown,230,2013-06-16 22:35:00
5:55 PM,89.6,69.8,52,29.90,10.0,SSW,5.8,-,N/A,,Unknown,200,2013-06-16 22:55:00
6:15 PM,89.6,69.8,52,29.89,10.0,SSW,8.1,-,N/A,,Unknown,200,2013-06-16 23:15:00
6:35 PM,89.6,69.8,52,29.88,10.0,SSW,10.4,-,N/A,,Unknown,200,2013-06-16 23:35:00
6:55 PM,89.6,69.8,52,29.89,10.0,SSW,9.2,-,N/A,,Unknown,200,2013-06-16 23:55:00
7:15 PM,87.8,69.8,55,29.89,10.0,South,5.8,-,N/A,,Unknown,190,2013-06-17 00:15:00
7:35 PM,86.0,71.6,62,29.90,10.0,Calm,Calm,-,N/A,,Unknown,0,2013-06-17 00:35:00
7:55 PM,86.0,69.8,58,29.90,10.0,Calm,Calm,-,N/A,,Unknown,0,2013-06-17 00:55:00
8:15 PM,86.0,69.8,58,29.91,10.0,SSE,3.5,-,N/A,,Unknown,160,2013-06-17 01:15:00
8:35 PM,84.2,71.6,66,29.90,10.0,SSE,4.6,-,N/A,,Unknown,150,2013-06-17 01:35:00
8:55 PM,84.2,71.6,66,29.90,10.0,SSE,4.6,-,N/A,,Unknown,150,2013-06-17 01:55:00
9:15 PM,84.2,69.8,62,29.89,10.0,SE,6.9,-,N/A,,Unknown,140,2013-06-17 02:15:00
9:35 PM,82.4,69.8,66,29.88,10.0,SSE,9.2,-,N/A,,Unknown,150,2013-06-17 02:35:00
9:55 PM,84.2,71.6,66,29.91,10.0,SE,4.6,-,N/A,,Unknown,130,2013-06-17 02:55:00
10:15 PM,82.4,71.6,70,29.91,10.0,SSE,6.9,-,N/A,,Unknown,160,2013-06-17 03:15:00
10:35 PM,82.4,71.6,70,29.91,10.0,SE,6.9,-,N/A,,Unknown,140,2013-06-17 03:35:00
10:55 PM,82.4,71.6,70,29.93,10.0,SE,8.1,-,N/A,,Unknown,140,2013-06-17 03:55:00
11:15 PM,82.4,71.6,70,29.94,10.0,ESE,8.1,-,N/A,,Unknown,120,2013-06-17 04:15:00
11:35 PM,82.4,71.6,70,29.96,10.0,East,9.2,-,N/A,,Unknown,100,2013-06-17 04:35:00
11:55 PM,78.8,69.8,74,29.97,10.0,ESE,18.4,25.3,N/A,,Unknown,120,2013-06-17 04:55:00